Deer Park, WA

3:29 AM PST on December 10, 2016 (GMT -0800)
Deer Park

Weather History for KDEW - February, 2013

Change the Weather History Date:

Wednesday, February 27, 2013

  Actual Average Record
Temperature  
Mean Temperature 32 °F 33 °F  
Max Temperature 41 °F 43 °F 57 °F (2005)
Min Temperature 22 °F 22 °F 7 °F (2001)
Degree Days  
Heating Degree Days 33 32  
Month to date heating degree days 940 937  
Since 1 July heating degree days 5048 5333  
Cooling Degree Days 0 0  
Month to date cooling degree days 0 0  
Year to date cooling degree days 0 0  
Moisture  
Dew Point 26 °F    
Average Humidity 76    
Maximum Humidity 92    
Minimum Humidity 59    
Precipitation  
Precipitation 0.00 in 0.05 in 1.10 in (1999)
Month to date precipitation 0.79 1.54  
Year to date precipitation 2.29 4.17  
Sea Level Pressure  
Sea Level Pressure 30.29 in    
Wind  
Wind Speed 2 mph (East)    
Max Wind Speed 10 mph    
Max Gust Speed 12 mph    
Visibility 10 miles    
Events      
T = Trace of Precipitation, MM = Missing Value Source: NWS Daily Summary

Daily Weather History Graph

Daily Weather History Graph

Search for Another Location

Airport or City:

Trip Planner

Search our weather history database for the weather conditions in past years. The results will help you decide how hot, cold, wet, or windy it might be!

Date:

Astronomy

Feb. 27, 2013 Rise Set
Actual Time 6:33 AM PST 5:31 PM PST
Civil Twilight 6:02 AM PST 6:02 PM PST
Nautical Twilight 5:26 AM PST 6:38 PM PST
Astronomical Twilight 4:50 AM PST 7:14 PM PST
Moon 8:13 PM PST (2/27) 6:58 AM PST (2/27)
Length of Visible Light 12h 00m
Length of Day
10h 57m
Waning Gibbous, 96% of the Moon is Illuminated
Feb 27
Waning Gibbous
Mar 4
Last Quarter
Mar 11
New
Mar 19
First Quarter
Mar 27
Full

Hourly Weather History & Observations

Time (PST) Temp. Windchill Dew Point Humidity Pressure Visibility Wind Dir Wind Speed Gust Speed Precip Events Conditions
12:53 AM 27.0 °F 21.6 °F 24.1 °F 89% 30.27 in 10.0 mi ENE 4.6 mph - N/A   Overcast
1:53 AM 30.0 °F 25.2 °F 25.0 °F 82% 30.26 in 10.0 mi North 4.6 mph - N/A   Overcast
2:53 AM 27.0 °F - 24.1 °F 89% 30.26 in 10.0 mi Calm Calm - N/A   Overcast
3:53 AM 28.0 °F 24.2 °F 24.1 °F 85% 30.24 in 10.0 mi NNE 3.5 mph - N/A   Overcast
4:53 AM 27.0 °F - 24.1 °F 89% 30.26 in 10.0 mi Calm Calm - N/A   Overcast
5:53 AM 27.0 °F - 24.1 °F 89% 30.26 in 10.0 mi Calm Calm - N/A   Overcast
7:53 AM 25.0 °F - 21.9 °F 88% 30.29 in 10.0 mi Calm Calm - N/A   Mostly Cloudy
8:53 AM 28.0 °F - 24.1 °F 85% 30.30 in 10.0 mi Calm Calm - N/A   Mostly Cloudy
9:53 AM 35.1 °F - 26.1 °F 70% 30.31 in 10.0 mi Calm Calm - N/A   Partly Cloudy
10:53 AM 36.0 °F - 26.1 °F 67% 30.32 in 10.0 mi Calm Calm - N/A   Clear
11:53 AM 39.0 °F - 26.1 °F 60% 30.31 in 10.0 mi Calm Calm - N/A   Clear
12:53 PM 39.9 °F - 26.1 °F 58% 30.29 in 10.0 mi Calm Calm - N/A   Clear
1:53 PM 39.0 °F 34.8 °F 27.0 °F 62% 30.29 in 10.0 mi SSW 5.8 mph - N/A   Clear
2:53 PM 39.0 °F 34.0 °F 28.0 °F 65% 30.30 in 10.0 mi South 6.9 mph - N/A   Partly Cloudy
3:53 PM 39.0 °F 34.8 °F 27.0 °F 62% 30.29 in 10.0 mi SSW 5.8 mph - N/A   Partly Cloudy
4:53 PM 37.0 °F - 27.0 °F 67% 30.30 in 10.0 mi Calm Calm - N/A   Mostly Cloudy
5:53 PM 37.0 °F 34.5 °F 26.1 °F 65% 30.30 in 10.0 mi SW 3.5 mph - N/A   Mostly Cloudy
6:53 PM 30.9 °F - 26.1 °F 82% 30.30 in 10.0 mi Calm Calm - N/A   Scattered Clouds
7:53 PM 30.9 °F - 27.0 °F 85% 30.31 in 10.0 mi Calm Calm - N/A   Overcast
8:53 PM 32.0 °F 28.7 °F 27.0 °F 82% 30.30 in 10.0 mi NE 3.5 mph - N/A   Overcast
9:53 PM 34.0 °F - 27.0 °F 75% 30.30 in 10.0 mi Calm Calm - N/A   Overcast
10:53 PM 30.0 °F 26.5 °F 27.0 °F 88% 30.29 in 10.0 mi ENE 3.5 mph - N/A   Overcast
11:53 PM 28.9 °F - 25.0 °F 85% 30.29 in 10.0 mi Calm Calm - N/A   Mostly Cloudy